Volver al catálogo

STARLINK-32297

ActivoComunicacionesVLEO
NORAD 61521·PAYLOAD·🇺🇸 United States

Lanzado Oct 15, 2024 desde Cape Canaveral Space Force Station

Loading…

Próximos Pases (próximas 24 horas)

TLE

ActualizadoSource: CelesTrak SupGP

Época: Sep 14, 2026, 22:41 UTC

1 61521C 24183N   26257.94562500  .00002134  00000+0  63070-4 0  2572
2 61521  53.1577 341.4402 0001111  79.0488 350.8851 15.34380651    10

Sigue STARLINK-32297 en tiempo real con AllMySat

Download on the App Store